SCP
0 -0 -0 -0 -1 -1 -1 -1 -1 -0 -0 0 0 0 1 1 1 1 1 1 1 1 1 1 1 1 0 0 1 1 1 1
0 -0 -0 -0 -0 -0 -0 -0 0 0 0 0 0 0 0 0 1 1 1 1 1 1 1 1 1 1 1 1 1 1 1 1
0 0 0 0 0 0 0 0 0 0 0 0 0 0 0 0 0 0 0 1 2 1 1 1 1 1 1 1 1 1 1 1
0 0 0 0 0 0 0 0 0 0 0 0 0 0 0 0 0 0 0 0 1 0 1 1 1 1 1 2 1 1 1 1
0 0 0 0 0 0 0 0 0 0 0 0 0 0 0 0 0 1 1 0 1 1 1 1 0 1 1 1 1 2 1 1
0 0 0 0 0 0 0 -0 -0 -0 0 0 0 0 0 0 0 0 0 0 0 1 0 1 1 1 0 1 1 1 2 1
0 0 0 0 0 0 -0 -0 -0 -0 -0 0 0 0 0 0 0 0 0 0 0 0 0 0 1 1 1 1 1 1 1 1
0 0 0 0 -0 0 0 -0 -0 -0 -0 -0 0 0 0 0 0 0 0 0 0 0 0 0 1 1 3 3 2 3 1 1
0 0 0 0 0 0 0 0 0 0 -0 -0 0 0 0 0 0 0 0 0 0 0 0 0 0 0 1 1 2 2 2 2
0 0 0 0 0 0 0 0 0 0 0 0 0 0 0 0 0 0 0 0 0 0 0 0 0 0 0 1 1 1 1 3
0 0 0 0 0 0 0 0 0 0 0 0 0 0 0 0 0 0 0 0 0 0 0 0 0 0 0 0 1 1 0 0
0 0 0 0 0 0 0 0 0 0 0 0 0 0 0 0 0 0 0 0 0 0 0 0 0 0 0 0 0 0 1 0
0 0 0 0 0 0 0 0 0 0 0 0 0 0 0 0 0 0 0 0 0 0 0 0 0 0 0 0 0 0 1 1
0 0 0 0 0 0 0 0 0 0 0 0 0 0 0 0 0 0 0 0 0 0 0 0 0 0 0 0 0 0 0 0
0 0 0 0 0 0 0 0 0 0 0 0 0 0 0 0 0 0 0 0 0 0 0 0 0 0 0 0 0 0 0 0
0 0 0 0 0 0 0 0 0 0 0 0 0 0 0 0 0 0 0 0 0 0 0 0 0 0 0 0 0 0 0 0
0 0 0 0 0 0 0 0 0 0 0 0 0 0 0 0 0 0 0 0 0 0 0 0 0 0 0 0 0 0 0 0
0 0 0 0 0 0 0 0 0 0 0 0 0 0 0 0 0 0 0 0 0 0 0 0 0 0 0 0 0 0 0 0
0 0 0 0 0 0 0 0 0 0 0 0 0 0 0 0 0 0 0 0 0 0 0 0 0 -0 -0 0 0 0 0 0
Wind_Speed_500mb
18 17 15 11 13 12 9 6 6 5 2 9 16 19 17 23 23 27 28 28 28 28 29 31 33 34 36 39 36 35 41 41
17 19 17 15 15 14 13 12 10 7 4 8 11 16 18 21 21 21 24 28 29 30 32 33 34 34 36 42 45 41 39 42
19 22 22 22 23 24 22 21 20 18 15 15 23 24 18 25 31 35 37 31 31 35 40 39 38 36 37 41 49 51 47 45
22 20 25 27 35 33 33 30 29 28 27 26 26 26 22 16 16 18 27 35 39 49 49 42 39 42 40 41 47 53 52 51
27 29 30 29 30 31 38 37 36 35 34 32 30 29 25 28 23 27 27 33 33 49 51 43 64 46 45 45 47 53 58 58
34 34 32 33 32 30 29 37 36 41 40 39 41 39 33 29 33 31 37 38 39 45 51 47 42 42 61 57 55 57 58 54
34 31 29 30 31 31 28 28 30 33 37 37 38 37 35 34 37 41 39 44 41 43 42 45 46 45 54 52 55 58 60 57
29 26 27 29 29 26 25 24 25 25 27 36 44 44 42 37 35 36 36 33 34 37 34 39 33 32 35 45 52 64 60 55
24 24 23 26 29 31 25 26 27 31 32 34 41 49 48 35 38 40 33 33 32 30 37 36 36 40 38 41 49 50 62 74
22 22 23 22 25 26 28 26 29 31 39 38 39 48 52 40 42 36 34 32 30 30 31 34 37 39 45 39 39 52 66 68
20 18 17 20 24 25 34 39 38 43 38 35 34 46 42 39 42 38 33 32 31 31 31 33 34 42 43 41 48 49 53 93
14 14 18 21 27 33 34 33 35 40 32 31 32 34 38 38 38 35 31 31 31 33 33 33 32 33 36 40 54 50 53 60
11 14 18 20 25 32 33 32 29 35 31 30 30 31 38 35 38 37 32 29 31 30 35 40 37 36 33 37 43 52 50 48
7 13 19 25 30 31 34 29 29 30 30 30 30 33 38 35 37 36 33 30 28 23 32 32 34 34 35 34 38 43 44 46
12 13 19 24 31 38 34 33 31 28 26 27 29 32 34 34 34 32 27 34 29 27 26 31 32 32 32 32 36 40 42 45
9 12 18 26 36 40 34 35 30 28 27 29 29 34 35 34 38 36 29 30 28 25 29 32 34 35 33 28 34 31 37 40
7 12 19 28 37 39 30 28 26 27 26 30 33 36 36 35 34 37 33 29 31 26 29 32 34 38 36 31 29 32 31 29
8 12 20 29 33 36 34 27 26 25 26 32 36 38 39 44 35 39 34 29 30 31 32 34 34 35 38 38 30 18 16 15
8 12 19 26 31 30 32 26 29 28 31 33 34 39 37 42 41 37 33 32 30 30 35 31 34 38 35 36 37 25 20 29
Wind_Direction_500mb
59 50 57 52 56 53 52 41 17 4 206 201 193 201 196 206 213 217 226 236 240 240 239 239 241 241 231 226 224 220 220 222
61 61 53 46 33 32 34 38 33 24 356 279 252 232 231 236 237 242 246 229 238 242 243 243 244 238 233 226 229 229 227 227
63 67 60 48 41 42 38 35 30 25 11 338 336 349 323 286 287 277 258 260 247 248 243 241 239 239 236 231 228 231 235 236
72 65 70 63 60 66 63 55 45 36 31 21 8 4 4 346 305 291 286 278 266 275 260 250 252 250 237 230 233 236 235 239
77 81 69 74 69 65 59 53 47 39 31 25 17 7 1 8 346 341 309 286 272 259 262 263 248 258 255 243 236 234 239 239
79 82 82 81 74 67 62 53 38 31 23 19 15 11 10 3 354 353 329 316 304 288 282 278 267 259 252 248 242 241 238 240
88 84 78 70 55 56 54 52 39 26 16 9 7 1 356 351 344 343 337 322 306 301 297 291 282 266 256 255 253 251 243 238
85 75 68 60 56 51 43 40 32 25 18 3 356 353 347 346 337 335 330 319 311 304 299 292 293 292 259 248 250 241 238 233
85 77 61 50 31 22 28 23 19 8 9 0 352 345 342 345 336 332 325 321 311 305 297 294 289 277 282 269 251 245 242 232
77 66 50 43 30 22 14 19 6 4 350 349 344 337 336 341 334 334 328 323 316 309 303 295 290 285 275 271 267 256 246 241
75 62 47 38 28 15 357 352 352 345 347 346 345 334 338 341 333 332 328 320 318 311 308 302 294 282 279 278 266 261 261 246
62 56 44 26 360 343 356 1 353 346 355 355 353 349 352 348 343 342 328 322 316 313 314 309 307 296 282 272 265 265 261 253
65 32 356 4 6 354 1 355 356 346 353 352 350 348 349 347 343 343 335 328 315 324 305 315 314 303 296 284 275 265 261 259
7 345 348 341 350 356 349 354 351 352 351 350 351 346 343 345 344 346 340 334 330 322 303 320 323 323 311 299 284 275 267 262
310 343 341 339 339 341 347 350 349 351 351 353 351 347 352 349 348 351 343 339 342 336 334 331 328 321 319 314 297 284 267 253
306 332 336 339 342 351 356 357 359 360 355 356 359 359 356 354 355 357 354 349 349 345 342 334 336 340 340 321 313 294 274 261
312 345 348 350 351 357 4 9 9 3 2 6 358 356 354 352 351 358 355 352 351 351 343 342 347 348 341 340 329 303 279 266
67 31 3 1 2 3 18 10 15 9 6 4 2 357 359 358 358 357 357 356 354 356 355 353 346 351 343 343 334 304 309 286
79 23 12 7 9 10 15 17 19 19 13 6 1 3 5 1 4 4 7 3 354 359 3 350 351 354 342 339 335 334 302 283
Wind_Speed_850mb
18 17 15 11 13 12 9 6 6 5 2 9 16 19 17 23 23 27 28 28 28 28 29 31 33 34 36 39 36 35 41 41
17 19 17 15 15 14 13 12 10 7 4 8 11 16 18 21 21 21 24 28 29 30 32 33 34 34 36 42 45 41 39 42
19 22 22 22 23 24 22 21 20 18 15 15 23 24 18 25 31 35 37 31 31 35 40 39 38 36 37 41 49 51 47 45
22 20 25 27 35 33 33 30 29 28 27 26 26 26 22 16 16 18 27 35 39 49 49 42 39 42 40 41 47 53 52 51
27 29 30 29 30 31 38 37 36 35 34 32 30 29 25 28 23 27 27 33 33 49 51 43 64 46 45 45 47 53 58 58
34 34 32 33 32 30 29 37 36 41 40 39 41 39 33 29 33 31 37 38 39 45 51 47 42 42 61 57 55 57 58 54
34 31 29 30 31 31 28 28 30 33 37 37 38 37 35 34 37 41 39 44 41 43 42 45 46 45 54 52 55 58 60 57
29 26 27 29 29 26 25 24 25 25 27 36 44 44 42 37 35 36 36 33 34 37 34 39 33 32 35 45 52 64 60 55
24 24 23 26 29 31 25 26 27 31 32 34 41 49 48 35 38 40 33 33 32 30 37 36 36 40 38 41 49 50 62 74
22 22 23 22 25 26 28 26 29 31 39 38 39 48 52 40 42 36 34 32 30 30 31 34 37 39 45 39 39 52 66 68
20 18 17 20 24 25 34 39 38 43 38 35 34 46 42 39 42 38 33 32 31 31 31 33 34 42 43 41 48 49 53 93
14 14 18 21 27 33 34 33 35 40 32 31 32 34 38 38 38 35 31 31 31 33 33 33 32 33 36 40 54 50 53 60
11 14 18 20 25 32 33 32 29 35 31 30 30 31 38 35 38 37 32 29 31 30 35 40 37 36 33 37 43 52 50 48
7 13 19 25 30 31 34 29 29 30 30 30 30 33 38 35 37 36 33 30 28 23 32 32 34 34 35 34 38 43 44 46
12 13 19 24 31 38 34 33 31 28 26 27 29 32 34 34 34 32 27 34 29 27 26 31 32 32 32 32 36 40 42 45
9 12 18 26 36 40 34 35 30 28 27 29 29 34 35 34 38 36 29 30 28 25 29 32 34 35 33 28 34 31 37 40
7 12 19 28 37 39 30 28 26 27 26 30 33 36 36 35 34 37 33 29 31 26 29 32 34 38 36 31 29 32 31 29
8 12 20 29 33 36 34 27 26 25 26 32 36 38 39 44 35 39 34 29 30 31 32 34 34 35 38 38 30 18 16 15
8 12 19 26 31 30 32 26 29 28 31 33 34 39 37 42 41 37 33 32 30 30 35 31 34 38 35 36 37 25 20 29
Wind_Direction_850mb
59 50 57 52 56 53 52 41 17 4 206 201 193 201 196 206 213 217 226 236 240 240 239 239 241 241 231 226 224 220 220 222
61 61 53 46 33 32 34 38 33 24 356 279 252 232 231 236 237 242 246 229 238 242 243 243 244 238 233 226 229 229 227 227
63 67 60 48 41 42 38 35 30 25 11 338 336 349 323 286 287 277 258 260 247 248 243 241 239 239 236 231 228 231 235 236
72 65 70 63 60 66 63 55 45 36 31 21 8 4 4 346 305 291 286 278 266 275 260 250 252 250 237 230 233 236 235 239
77 81 69 74 69 65 59 53 47 39 31 25 17 7 1 8 346 341 309 286 272 259 262 263 248 258 255 243 236 234 239 239
79 82 82 81 74 67 62 53 38 31 23 19 15 11 10 3 354 353 329 316 304 288 282 278 267 259 252 248 242 241 238 240
88 84 78 70 55 56 54 52 39 26 16 9 7 1 356 351 344 343 337 322 306 301 297 291 282 266 256 255 253 251 243 238
85 75 68 60 56 51 43 40 32 25 18 3 356 353 347 346 337 335 330 319 311 304 299 292 293 292 259 248 250 241 238 233
85 77 61 50 31 22 28 23 19 8 9 0 352 345 342 345 336 332 325 321 311 305 297 294 289 277 282 269 251 245 242 232
77 66 50 43 30 22 14 19 6 4 350 349 344 337 336 341 334 334 328 323 316 309 303 295 290 285 275 271 267 256 246 241
75 62 47 38 28 15 357 352 352 345 347 346 345 334 338 341 333 332 328 320 318 311 308 302 294 282 279 278 266 261 261 246
62 56 44 26 360 343 356 1 353 346 355 355 353 349 352 348 343 342 328 322 316 313 314 309 307 296 282 272 265 265 261 253
65 32 356 4 6 354 1 355 356 346 353 352 350 348 349 347 343 343 335 328 315 324 305 315 314 303 296 284 275 265 261 259
7 345 348 341 350 356 349 354 351 352 351 350 351 346 343 345 344 346 340 334 330 322 303 320 323 323 311 299 284 275 267 262
310 343 341 339 339 341 347 350 349 351 351 353 351 347 352 349 348 351 343 339 342 336 334 331 328 321 319 314 297 284 267 253
306 332 336 339 342 351 356 357 359 360 355 356 359 359 356 354 355 357 354 349 349 345 342 334 336 340 340 321 313 294 274 261
312 345 348 350 351 357 4 9 9 3 2 6 358 356 354 352 351 358 355 352 351 351 343 342 347 348 341 340 329 303 279 266
67 31 3 1 2 3 18 10 15 9 6 4 2 357 359 358 358 357 357 356 354 356 355 353 346 351 343 343 334 304 309 286
79 23 12 7 9 10 15 17 19 19 13 6 1 3 5 1 4 4 7 3 354 359 3 350 351 354 342 339 335 334 302 283